When you browse on this site, cookies collect data to enhance your experience and personalize the content and advertising you see.
Visit our Privacy Policy to learn more. By continuing to use the site, you agree to this use of cookies and data.
  • In Hungary
  • List of Countries
  • For 7 days
  • Water Temperature
  • Weather Map
  • News
  • Weather Widgets
  • user-avatar
    Login

    Hourly Weather Shalgakov

    Today, 22 October, Tuesday

    Time Temperature Precipitation Wind Pressure Humidity
    00:00 +12°C° 0 mm 3 mps 763 mmHg 67%
    01:00 +11°C° 0 mm 3 mps 763 mmHg 69%
    02:00 +11°C° 0 mm 3 mps 763 mmHg 72%
    03:00 +10°C° 0 mm 2 mps 763 mmHg 77%
    04:00 +10°C° 0 mm 2 mps 763 mmHg 79%
    05:00 +10°C° 0 mm 2 mps 763 mmHg 81%
    06:00 +10°C° 0 mm 2 mps 763 mmHg 84%
    07:00 +11°C° 0 mm 3 mps 763 mmHg 79%
    08:00 +12°C° 0 mm 3 mps 763 mmHg 74%
    09:00 +13°C° 0 mm 4 mps 763 mmHg 68%
    10:00 +14°C° 0 mm 3 mps 763 mmHg 61%
    11:00 +17°C° 0 mm 3 mps 763 mmHg 53%
    12:00 +18°C° 0 mm 3 mps 763 mmHg 46%
    13:00 +19°C° 0 mm 3 mps 763 mmHg 44%
    14:00 +19°C° 0 mm 2 mps 762 mmHg 43%
    15:00 +19°C° 0 mm 2 mps 762 mmHg 41%
    16:00 +18°C° 0 mm 2 mps 762 mmHg 46%
    17:00 +16°C° 0 mm 2 mps 762 mmHg 50%
    18:00 +15°C° 0 mm 1 mps 762 mmHg 55%
    19:00 +15°C° 0 mm 1 mps 762 mmHg 56%
    20:00 +14°C° 0 mm 1 mps 762 mmHg 58%
    21:00 +14°C° 0 mm 1 mps 762 mmHg 59%
    22:00 +14°C° 0 mm 1 mps 762 mmHg 60%
    23:00 +14°C° 0 mm 1 mps 761 mmHg 60%

    Tomorrow, 23 October, Wednesday

    Time Temperature Precipitation Wind Pressure Humidity
    00:00 +14°C° 0 mm 1 mps 761 mmHg 61%
    01:00 +13°C° 0 mm 1 mps 761 mmHg 62%
    02:00 +13°C° 0 mm 1 mps 761 mmHg 63%
    03:00 +13°C° 0 mm 1 mps 761 mmHg 64%
    04:00 +12°C° 0 mm 0 mps 761 mmHg 66%
    05:00 +11°C° 0 mm 0 mps 761 mmHg 68%
    06:00 +11°C° 0 mm 0 mps 761 mmHg 69%
    07:00 +13°C° 0 mm 1 mps 761 mmHg 65%
    08:00 +14°C° 0 mm 1 mps 762 mmHg 61%
    09:00 +16°C° 0 mm 1 mps 762 mmHg 56%
    10:00 +18°C° 0 mm 1 mps 762 mmHg 52%
    11:00 +19°C° 0 mm 1 mps 762 mmHg 47%
    12:00 +21°C° 0 mm 1 mps 761 mmHg 42%
    13:00 +21°C° 0 mm 1 mps 761 mmHg 41%
    14:00 +21°C° 0 mm 1 mps 761 mmHg 41%
    15:00 +21°C° 0 mm 1 mps 761 mmHg 40%
    16:00 +20°C° 0 mm 1 mps 761 mmHg 44%
    17:00 +19°C° 0 mm 1 mps 761 mmHg 48%
    18:00 +16°C° 0 mm 1 mps 761 mmHg 52%
    19:00 +16°C° 0 mm 1 mps 761 mmHg 53%
    20:00 +15°C° 0 mm 2 mps 761 mmHg 54%
    21:00 +15°C° 0 mm 2 mps 761 mmHg 55%
    22:00 +15°C° 0 mm 2 mps 761 mmHg 56%
    23:00 +14°C° 0 mm 2 mps 761 mmHg 56%

    Day after tomorrow, 24 October, Thursday

    Time Temperature Precipitation Wind Pressure Humidity
    00:00 +14°C° 0 mm 2 mps 760 mmHg 57%
    01:00 +14°C° 0 mm 2 mps 760 mmHg 57%
    02:00 +13°C° 0 mm 1 mps 760 mmHg 57%
    03:00 +13°C° 0 mm 1 mps 760 mmHg 58%
    04:00 +13°C° 0 mm 1 mps 760 mmHg 58%
    05:00 +13°C° 0 mm 1 mps 760 mmHg 59%
    06:00 +13°C° 0 mm 1 mps 760 mmHg 59%
    07:00 +14°C° 0 mm 2 mps 760 mmHg 58%
    08:00 +14°C° 0 mm 2 mps 760 mmHg 56%
    09:00 +15°C° 0 mm 2 mps 760 mmHg 55%
    10:00 +17°C° 0 mm 2 mps 760 mmHg 50%
    11:00 +18°C° 0 mm 2 mps 760 mmHg 45%
    12:00 +20°C° 0 mm 2 mps 760 mmHg 40%
    13:00 +20°C° 0 mm 2 mps 760 mmHg 39%
    14:00 +21°C° 0 mm 2 mps 759 mmHg 38%
    15:00 +22°C° 0 mm 1 mps 759 mmHg 37%
    16:00 +20°C° 0 mm 2 mps 759 mmHg 40%
    17:00 +18°C° 0 mm 2 mps 759 mmHg 43%
    18:00 +17°C° 0 mm 2 mps 759 mmHg 47%
    19:00 +17°C° 0 mm 2 mps 759 mmHg 47%
    20:00 +16°C° 0 mm 2 mps 759 mmHg 47%
    21:00 +16°C° 0 mm 2 mps 759 mmHg 48%
    22:00 +16°C° 0 mm 2 mps 759 mmHg 50%
    23:00 +16°C° 0 mm 2 mps 759 mmHg 52%

    25 October, Friday

    Time Temperature Precipitation Wind Pressure Humidity
    00:00 +15°C° 0 mm 2 mps 758 mmHg 54%
    01:00 +14°C° 0 mm 3 mps 758 mmHg 56%
    02:00 +14°C° 0 mm 3 mps 758 mmHg 57%
    03:00 +14°C° 0 mm 3 mps 758 mmHg 59%
    04:00 +13°C° 0 mm 3 mps 758 mmHg 59%
    05:00 +13°C° 0 mm 3 mps 758 mmHg 60%
    06:00 +14°C° 0 mm 2 mps 758 mmHg 61%
    07:00 +13°C° 0 mm 3 mps 759 mmHg 59%
    08:00 +14°C° 0 mm 3 mps 759 mmHg 57%
    09:00 +16°C° 0 mm 3 mps 759 mmHg 55%
    10:00 +17°C° 0 mm 3 mps 759 mmHg 53%
    11:00 +18°C° 0 mm 3 mps 759 mmHg 51%
    12:00 +19°C° 0 mm 4 mps 759 mmHg 49%
    13:00 +19°C° 0 mm 4 mps 759 mmHg 49%
    14:00 +19°C° 0 mm 4 mps 759 mmHg 49%
    15:00 +20°C° 0 mm 5 mps 759 mmHg 48%
    16:00 +18°C° 0 mm 4 mps 759 mmHg 52%
    17:00 +17°C° 0 mm 4 mps 759 mmHg 55%
    18:00 +14°C° 0 mm 3 mps 759 mmHg 59%
    19:00 +14°C° 0 mm 3 mps 759 mmHg 59%
    20:00 +13°C° 0 mm 3 mps 759 mmHg 59%
    21:00 +13°C° 0 mm 3 mps 759 mmHg 59%
    22:00 +12°C° 0 mm 3 mps 759 mmHg 62%
    23:00 +12°C° 0 mm 3 mps 759 mmHg 64%

    26 October, Saturday

    Time Temperature Precipitation Wind Pressure Humidity
    00:00 +12°C° 0 mm 3 mps 759 mmHg 66%
    01:00 +11°C° 0 mm 3 mps 759 mmHg 66%
    02:00 +11°C° 0 mm 3 mps 759 mmHg 66%
    03:00 +11°C° 0 mm 3 mps 759 mmHg 66%
    04:00 +10°C° 0 mm 3 mps 759 mmHg 66%
    05:00 +10°C° 0 mm 3 mps 759 mmHg 65%
    06:00 +10°C° 0 mm 3 mps 759 mmHg 65%
    07:00 +11°C° 0 mm 3 mps 760 mmHg 62%
    08:00 +12°C° 0 mm 3 mps 760 mmHg 60%
    09:00 +14°C° 0 mm 3 mps 760 mmHg 57%
    10:00 +16°C° 0 mm 3 mps 760 mmHg 53%
    11:00 +18°C° 0 mm 4 mps 760 mmHg 48%
    12:00 +19°C° 0 mm 4 mps 760 mmHg 44%
    13:00 +19°C° 0 mm 3 mps 760 mmHg 43%
    14:00 +19°C° 0 mm 3 mps 759 mmHg 42%
    15:00 +20°C° 0 mm 3 mps 759 mmHg 40%
    16:00 +18°C° 0 mm 3 mps 759 mmHg 43%
    17:00 +17°C° 0 mm 2 mps 759 mmHg 46%
    18:00 +15°C° 0 mm 2 mps 759 mmHg 49%
    19:00 +15°C° 0 mm 2 mps 759 mmHg 50%
    20:00 +14°C° 0 mm 2 mps 759 mmHg 51%
    21:00 +14°C° 0 mm 2 mps 759 mmHg 52%
    22:00 +13°C° 0 mm 2 mps 759 mmHg 56%
    23:00 +13°C° 0 mm 2 mps 758 mmHg 60%

    27 October, Sunday

    Time Temperature Precipitation Wind Pressure Humidity
    00:00 +13°C° 0 mm 2 mps 758 mmHg 64%
    01:00 +13°C° 0 mm 2 mps 758 mmHg 70%
    02:00 +13°C° 0 mm 2 mps 758 mmHg 77%
    03:00 +13°C° 0 mm 2 mps 758 mmHg 83%
    04:00 +13°C° 0 mm 2 mps 758 mmHg 85%
    05:00 +13°C° 0 mm 2 mps 758 mmHg 88%
    06:00 +12°C° 0 mm 2 mps 758 mmHg 90%
    07:00 +13°C° 0 mm 2 mps 758 mmHg 85%
    08:00 +14°C° 0 mm 2 mps 758 mmHg 80%
    09:00 +15°C° 0 mm 2 mps 758 mmHg 75%
    10:00 +17°C° 0 mm 2 mps 758 mmHg 70%
    11:00 +18°C° 0 mm 2 mps 757 mmHg 65%
    12:00 +19°C° 0 mm 2 mps 757 mmHg 59%
    13:00 +19°C° 0 mm 2 mps 757 mmHg 59%
    14:00 +19°C° 0 mm 2 mps 756 mmHg 58%
    15:00 +19°C° 0 mm 2 mps 756 mmHg 57%
    16:00 +18°C° 0 mm 2 mps 756 mmHg 63%
    17:00 +17°C° 0 mm 2 mps 755 mmHg 69%
    18:00 +16°C° 0 mm 2 mps 755 mmHg 74%
    19:00 +15°C° 0 mm 2 mps 755 mmHg 77%
    20:00 +15°C° 0 mm 2 mps 755 mmHg 79%
    21:00 +14°C° 0 mm 2 mps 755 mmHg 82%
    22:00 +14°C° 0 mm 2 mps 755 mmHg 83%
    23:00 +14°C° 0 mm 2 mps 755 mmHg 84%

    28 October, Monday

    Time Temperature Precipitation Wind Pressure Humidity
    00:00 +13°C° 0 mm 1 mps 755 mmHg 86%
    01:00 +13°C° 0 mm 2 mps 755 mmHg 85%
    02:00 +13°C° 0 mm 2 mps 754 mmHg 85%
    03:00 +13°C° 0 mm 2 mps 754 mmHg 85%
    04:00 +12°C° 0 mm 2 mps 754 mmHg 83%
    05:00 +12°C° 0 mm 2 mps 754 mmHg 81%
    06:00 +12°C° 0 mm 2 mps 754 mmHg 80%
    07:00 +12°C° 0 mm 3 mps 754 mmHg 73%
    08:00 +13°C° 0 mm 3 mps 754 mmHg 67%
    09:00 +14°C° 0 mm 3 mps 754 mmHg 61%
    10:00 +15°C° 0 mm 4 mps 754 mmHg 56%
    11:00 +17°C° 0 mm 4 mps 754 mmHg 51%
    12:00 +19°C° 0 mm 5 mps 754 mmHg 47%
    13:00 +19°C° 0 mm 5 mps 753 mmHg 47%
    14:00 +19°C° 0 mm 5 mps 753 mmHg 48%
    15:00 +19°C° 0 mm 5 mps 753 mmHg 49%
    16:00 +17°C° 0 mm 5 mps 753 mmHg 52%
    17:00 +17°C° 0 mm 4 mps 753 mmHg 55%
    18:00 +16°C° 0 mm 3 mps 753 mmHg 59%
    19:00 +15°C° 0 mm 4 mps 753 mmHg 61%
    20:00 +15°C° 0 mm 4 mps 753 mmHg 64%
    21:00 +14°C° 0 mm 4 mps 753 mmHg 66%
    22:00 +14°C° 0 mm 4 mps 753 mmHg 69%
    23:00 +14°C° 0 mm 4 mps 753 mmHg 72%
    Show more